Wind_Speed
101 105 94 92 100 108 111 117 125 126 120 119 107 99 98 96 94 92 92 92 94 96 98 100 103 105 107 109 109 110 111 113 112 117 127 134 138 140 140 140 137 131 131
94 94 96 101 107 112 117 120 133 128 128 111 104 98 94 93 93 94 93 94 96 97 98 100 103 105 107 109 110 110 110 110 110 110 116 123 132 143 141 143 144 145 138
106 102 104 111 116 120 126 134 135 137 128 106 104 98 96 97 95 92 92 93 94 95 96 97 99 101 104 106 106 107 108 108 107 106 108 113 118 128 139 140 142 144 146
104 110 113 118 125 133 139 145 145 128 112 108 101 99 98 95 91 91 91 92 93 94 95 95 96 97 98 99 100 101 103 103 103 102 100 104 111 116 121 130 135 137 142
113 118 125 131 138 141 143 152 125 114 109 102 101 100 95 91 89 87 87 88 89 90 90 92 94 95 96 96 95 96 96 97 98 99 98 98 103 107 111 116 122 132 133
122 129 133 136 142 145 141 135 116 113 108 104 99 96 91 88 86 85 84 84 84 85 88 89 90 92 92 92 92 92 94 94 95 95 94 93 97 101 106 109 109 117 126
131 137 144 144 143 154 144 129 122 115 108 101 99 92 89 87 86 83 82 81 81 83 83 84 85 86 86 86 88 91 91 92 92 92 90 92 92 96 100 102 105 106 111
141 146 146 148 152 140 141 128 119 112 106 100 94 90 87 86 84 83 82 81 80 79 79 80 80 82 83 83 85 88 89 90 90 88 87 91 92 95 94 96 96 98 104
149 151 151 155 152 143 132 122 119 112 102 98 93 89 88 86 83 82 81 79 79 79 79 78 78 79 80 80 81 83 85 88 88 88 87 89 91 92 93 91 93 92 97
155 154 158 154 145 128 125 124 114 105 101 97 92 91 89 87 84 83 82 78 77 75 75 74 75 76 77 79 78 78 79 83 84 85 84 86 87 88 90 90 91 92 92
159 160 158 144 129 127 124 115 109 103 99 94 93 92 89 85 84 83 82 77 74 72 73 74 75 75 76 76 75 75 76 78 80 80 82 84 84 85 87 86 86 88 90
162 155 144 133 131 124 117 110 105 101 97 95 93 90 87 86 83 80 77 75 73 71 72 73 72 72 73 72 70 69 69 70 71 74 76 77 78 81 83 84 84 84 85
158 148 135 129 124 118 111 106 103 100 96 93 91 89 86 83 80 78 75 74 72 69 68 69 68 69 69 71 70 69 70 70 70 72 74 75 75 75 77 77 79 82 83
148 138 130 126 118 113 108 104 100 97 93 91 90 87 83 81 78 77 76 73 69 66 65 67 66 66 68 71 72 71 70 70 70 71 72 74 75 75 75 74 75 76 77
139 132 125 118 113 108 103 98 95 93 90 87 84 82 81 80 78 76 73 70 68 67 67 66 66 65 66 67 69 71 71 71 70 70 70 71 72 73 73 73 72 72 73
131 123 117 112 108 102 97 94 91 90 87 83 80 79 78 75 72 70 69 69 68 66 65 66 65 64 64 64 64 66 67 69 69 69 68 67 68 69 69 68 67 69 71
122 116 111 106 101 96 93 89 88 87 85 81 78 76 73 73 70 69 68 69 67 64 64 65 64 62 60 60 61 61 62 63 63 63 64 62 62 64 64 64 64 65 68
114 109 103 98 94 91 87 85 87 87 85 81 76 72 69 70 70 68 68 69 66 63 63 61 61 60 60 59 59 59 57 56 56 57 57 57 57 58 59 60 61 62 63
105 99 95 91 88 86 82 82 84 84 82 79 76 72 71 69 68 66 67 67 65 62 59 59 58 57 57 57 55 54 54 54 53 54 53 53 54 55 57 57 58 59 60
98 93 89 86 84 80 79 81 81 80 80 79 77 74 70 69 67 66 65 65 62 58 57 56 56 55 55 53 51 51 51 51 51 52 52 52 51 50 52 54 54 55 55
93 89 85 83 77 76 78 79 79 78 78 78 76 73 70 68 67 65 62 62 60 56 56 54 53 54 53 51 49 48 48 48 48 48 49 49 49 48 48 50 50 51 52
89 86 83 78 77 78 78 78 77 77 76 76 74 72 69 68 67 63 60 58 57 56 54 53 52 51 50 48 47 46 46 46 46 46 45 46 46 45 45 46 47 48 49
85 83 79 77 77 77 77 77 76 75 74 74 72 70 67 66 65 60 57 56 53 53 52 50 49 48 47 46 45 45 43 43 43 44 44 44 44 44 45 45 46 46 47
84 81 79 78 76 76 76 75 74 73 73 71 67 64 63 62 59 56 54 53 51 50 50 49 47 45 44 44 43 43 42 42 41 40 41 41 41 41 42 43 44 44 44
82 80 78 76 74 73 72 71 71 69 68 65 63 60 58 57 55 53 51 50 49 48 47 47 45 43 42 41 40 40 40 40 40 40 40 40 39 39 40 41 42 42 42
80 77 75 74 72 70 68 68 67 65 64 61 60 57 56 54 51 50 49 48 47 45 45 45 44 41 39 38 38 39 39 39 38 38 39 39 39 39 38 38 38 39 39
Wind_Direction
287 294 304 306 304 310 312 315 315 315 311 310 300 297 296 293 288 285 282 280 278 276 273 271 270 268 266 265 264 262 261 259 255 253 252 249 250 249 251 250 250 249 247
298 299 299 304 309 311 315 312 315 312 311 308 303 299 296 291 289 286 283 281 279 276 275 273 270 268 267 266 265 263 261 260 258 255 253 250 249 250 250 250 250 250 248
302 308 312 311 315 313 315 315 313 313 311 305 303 297 294 292 290 287 285 282 279 277 276 274 273 271 269 267 265 264 263 261 259 256 255 254 252 249 249 250 250 250 249
309 312 314 314 315 315 316 316 312 311 307 304 301 297 294 292 289 287 285 283 281 279 277 275 273 272 270 269 268 267 265 264 262 260 257 255 255 253 252 251 252 251 250
313 313 314 313 313 313 315 315 310 307 305 303 299 296 292 291 289 287 285 283 281 279 278 277 275 273 272 272 271 270 268 265 263 261 258 255 255 255 253 252 252 253 252
315 316 313 313 314 314 313 314 308 307 305 302 300 297 295 292 291 288 286 283 281 279 278 276 275 274 274 273 272 270 269 268 266 264 261 259 256 254 253 252 251 250 252
315 313 314 313 312 313 314 311 308 306 306 302 300 298 295 294 292 289 288 285 283 281 278 277 276 275 273 272 271 269 268 267 265 264 264 261 258 256 254 252 250 250 250
312 312 312 313 314 313 312 310 307 306 305 301 299 297 296 293 292 291 289 285 283 281 280 278 275 274 272 270 269 269 269 269 267 266 264 263 261 259 255 254 252 249 249
312 312 312 314 313 310 310 308 307 305 302 301 300 298 296 294 293 291 288 287 286 284 282 280 277 275 273 272 270 270 269 269 267 266 264 262 261 260 258 257 255 251 249
311 312 312 312 311 310 308 307 305 303 302 301 300 298 296 296 295 292 291 289 287 285 283 280 278 277 276 274 272 271 270 269 268 267 265 263 261 260 258 256 255 253 251
312 310 311 310 310 308 307 305 303 302 301 300 299 298 298 297 295 293 291 289 288 287 284 282 280 279 277 275 274 272 271 269 269 266 265 264 262 261 260 258 256 254 252
310 309 309 308 308 307 305 303 302 301 300 300 299 298 298 297 295 293 291 290 289 287 285 283 281 280 279 278 275 274 272 270 269 268 267 265 263 262 260 259 258 255 253
308 308 307 307 307 305 303 302 301 300 299 299 299 298 297 295 293 292 291 290 289 287 284 281 281 282 281 279 277 275 273 272 270 269 268 267 265 263 262 260 258 256 254
306 306 306 306 304 303 301 300 299 299 298 298 298 297 296 294 293 293 292 291 289 286 283 282 282 281 280 279 279 277 275 273 271 269 268 267 266 265 264 263 260 258 256
305 305 305 304 302 300 299 298 298 297 297 296 295 295 294 293 294 293 293 291 289 288 286 285 283 280 277 275 274 275 275 274 272 270 269 267 266 266 265 264 262 261 259
303 303 303 302 300 299 298 297 296 296 295 295 294 294 293 293 293 292 291 289 289 288 287 285 283 281 278 275 272 270 270 271 272 271 270 269 268 267 266 264 262 261 260
302 301 302 300 299 298 297 297 296 295 295 295 296 296 295 295 294 293 291 289 289 289 287 286 285 284 281 277 274 272 270 268 270 271 270 270 269 268 266 264 261 258 257
300 300 300 298 297 295 296 296 294 294 296 296 297 296 295 294 293 293 292 292 292 290 289 287 285 283 281 279 277 275 275 275 272 270 269 268 268 267 265 264 263 261 259
300 299 297 296 294 294 295 294 293 295 296 297 298 297 296 295 294 293 292 291 291 290 288 287 285 283 281 280 279 278 277 276 275 273 271 270 268 266 265 264 263 261 261
300 298 296 294 294 295 294 293 294 296 296 297 296 297 297 296 295 294 292 290 290 289 287 285 284 283 282 282 281 279 278 278 276 274 273 270 268 266 265 264 263 262 260
297 296 294 294 295 295 294 295 295 296 295 295 295 296 296 295 293 292 291 289 289 288 286 284 282 281 282 282 281 280 279 277 276 274 273 272 271 269 267 265 264 262 261
296 294 294 297 297 296 295 294 294 294 294 294 295 295 294 293 291 292 290 287 287 286 284 283 281 281 282 282 282 281 280 278 277 276 275 274 273 271 269 268 266 265 263
294 294 296 297 296 295 294 293 294 294 293 293 293 293 292 291 290 290 288 287 285 284 282 282 281 283 284 284 283 282 280 278 277 276 274 273 273 272 270 268 267 265 264
295 296 297 296 295 294 293 293 292 292 292 292 292 291 290 289 289 288 286 285 283 281 280 280 280 281 282 281 280 280 279 278 276 274 273 271 269 269 269 268 267 266 265
294 295 295 294 293 292 291 291 292 292 292 292 292 291 290 288 287 286 284 283 281 280 279 280 280 281 281 279 279 277 277 277 277 277 275 274 272 270 269 267 266 266 265
293 294 294 293 293 293 293 293 293 293 292 292 291 290 288 287 286 284 283 282 280 279 279 279 280 280 279 279 278 278 278 277 276 275 275 275 273 272 270 268 266 265 264
Height
10531 10519 10506 10497 10487 10477 10466 10451 10440 10427 10412 10396 10383 10370 10360 10349 10341 10332 10325 10320 10315 10309 10306 10302 10298 10296 10295 10294 10295 10296 10299 10304 10319 10333 10330 10329 10330 10336 10341 10348 10360 10377 10391
10506 10492 10478 10468 10459 10447 10432 10419 10405 10392 10376 10359 10348 10335 10324 10317 10309 10301 10293 10285 10280 10275 10271 10268 10264 10262 10260 10259 10258 10259 10263 10264 10272 10288 10290 10293 10299 10293 10302 10308 10318 10329 10347
10475 10463 10450 10438 10426 10414 10399 10385 10368 10352 10340 10326 10316 10303 10292 10284 10275 10267 10259 10253 10247 10242 10237 10234 10230 10227 10224 10222 10223 10225 10226 10229 10232 10244 10256 10254 10260 10261 10263 10269 10278 10287 10298
10445 10433 10419 10409 10397 10382 10367 10351 10332 10316 10304 10292 10282 10271 10259 10251 10244 10236 10228 10221 10214 10208 10204 10200 10196 10193 10190 10187 10188 10190 10192 10195 10197 10204 10217 10221 10220 10225 10233 10236 10240 10248 10259
10417 10404 10392 10381 10366 10349 10332 10316 10296 10284 10273 10263 10251 10239 10229 10220 10214 10205 10199 10192 10184 10178 10173 10168 10163 10159 10155 10155 10156 10155 10157 10161 10163 10165 10173 10182 10184 10189 10195 10202 10212 10208 10220
10388 10373 10362 10349 10331 10314 10298 10281 10266 10254 10242 10229 10217 10206 10197 10188 10183 10176 10168 10163 10157 10150 10144 10138 10133 10129 10127 10125 10125 10124 10124 10125 10127 10130 10136 10144 10148 10151 10153 10165 10177 10181 10188
10358 10344 10331 10316 10299 10282 10262 10242 10228 10217 10208 10197 10185 10175 10167 10159 10153 10146 10139 10133 10127 10120 10115 10109 10103 10100 10099 10098 10094 10091 10092 10093 10096 10098 10105 10105 10114 10114 10121 10129 10139 10153 10157
10327 10314 10297 10281 10261 10243 10226 10209 10197 10186 10177 10166 10155 10146 10138 10130 10123 10117 10110 10104 10097 10091 10086 10080 10077 10071 10069 10069 10066 10062 10063 10063 10065 10072 10076 10074 10079 10078 10087 10094 10108 10119 10123
10295 10280 10261 10245 10229 10212 10194 10179 10167 10155 10145 10135 10125 10116 10108 10100 10095 10088 10082 10076 10068 10062 10056 10052 10049 10044 10041 10041 10040 10037 10035 10033 10036 10039 10043 10044 10047 10050 10055 10066 10071 10084 10087
10264 10246 10228 10212 10195 10178 10164 10150 10136 10125 10116 10106 10097 10088 10080 10073 10067 10060 10054 10049 10042 10036 10029 10024 10020 10016 10014 10010 10012 10013 10011 10006 10006 10008 10011 10012 10016 10019 10023 10034 10039 10048 10055
10229 10213 10196 10178 10163 10150 10135 10119 10106 10095 10087 10080 10069 10060 10053 10048 10040 10033 10026 10021 10016 10010 10003 9997 9993 9990 9986 9984 9985 9985 9985 9982 9979 9980 9981 9981 9986 9989 9991 10000 10008 10015 10021
10198 10182 10165 10149 10135 10120 10105 10091 10078 10068 10060 10053 10043 10034 10026 10019 10012 10006 10001 9995 9990 9988 9980 9971 9968 9964 9960 9958 9958 9959 9958 9957 9955 9951 9952 9953 9957 9960 9963 9969 9977 9984 9990
10165 10151 10136 10121 10106 10090 10076 10062 10050 10041 10035 10026 10017 10009 10002 9995 9988 9982 9978 9972 9967 9964 9958 9949 9946 9941 9937 9934 9933 9934 9933 9932 9930 9928 9926 9927 9929 9932 9934 9941 9945 9952 9957
10130 10117 10104 10091 10076 10062 10048 10034 10024 10014 10009 10002 9993 9984 9978 9971 9966 9959 9952 9947 9944 9940 9936 9928 9926 9922 9917 9912 9908 9909 9908 9907 9906 9904 9903 9903 9904 9906 9908 9915 9918 9923 9929
10102 10088 10076 10062 10048 10035 10022 10011 10000 9991 9984 9977 9970 9963 9955 9948 9942 9935 9928 9923 9919 9915 9911 9906 9902 9899 9897 9894 9889 9885 9884 9883 9882 9881 9880 9881 9881 9882 9885 9889 9892 9896 9900
10074 10060 10046 10032 10019 10006 9996 9986 9975 9966 9959 9953 9948 9941 9933 9925 9919 9913 9908 9901 9896 9893 9889 9883 9878 9875 9872 9870 9867 9865 9864 9860 9858 9857 9858 9859 9859 9859 9861 9864 9869 9872 9873
10043 10029 10016 10004 9991 9980 9970 9960 9950 9940 9933 9930 9925 9916 9910 9902 9896 9891 9885 9877 9875 9872 9866 9861 9855 9852 9849 9846 9843 9841 9842 9842 9839 9838 9836 9836 9838 9836 9837 9840 9843 9847 9848
10011 9999 9989 9977 9964 9954 9945 9936 9925 9915 9909 9904 9901 9895 9889 9881 9874 9870 9862 9854 9852 9850 9843 9839 9834 9830 9826 9823 9821 9819 9819 9819 9818 9818 9817 9817 9817 9816 9816 9818 9819 9822 9826
9981 9970 9960 9950 9939 9930 9923 9913 9902 9894 9886 9878 9873 9872 9866 9859 9853 9849 9842 9834 9830 9828 9823 9819 9813 9810 9806 9802 9801 9800 9799 9798 9798 9797 9797 9797 9797 9798 9797 9798 9799 9801 9803
9951 9942 9932 9923 9914 9907 9898 9889 9880 9871 9862 9855 9850 9847 9844 9836 9831 9827 9821 9813 9810 9808 9805 9801 9795 9790 9787 9785 9784 9782 9781 9780 9779 9777 9776 9776 9777 9779 9779 9779 9780 9780 9784
9923 9914 9905 9898 9892 9883 9873 9864 9856 9849 9841 9833 9827 9825 9822 9816 9810 9806 9802 9794 9789 9788 9785 9782 9778 9773 9769 9767 9766 9765 9764 9762 9761 9759 9758 9757 9758 9760 9760 9760 9761 9762 9763
9896 9887 9880 9873 9866 9857 9849 9842 9836 9828 9820 9813 9808 9803 9800 9794 9788 9785 9781 9776 9771 9768 9766 9763 9759 9755 9753 9750 9749 9747 9746 9744 9743 9742 9741 9740 9740 9741 9741 9742 9742 9743 9744
9869 9861 9856 9849 9841 9833 9826 9819 9813 9805 9799 9793 9788 9782 9778 9772 9768 9765 9761 9756 9753 9749 9746 9744 9741 9738 9735 9734 9732 9730 9729 9727 9727 9726 9726 9726 9725 9724 9724 9724 9725 9725 9726
9844 9838 9832 9825 9818 9810 9802 9796 9790 9784 9778 9772 9767 9762 9757 9753 9748 9744 9741 9738 9735 9732 9729 9727 9725 9724 9722 9720 9718 9715 9713 9711 9712 9712 9711 9712 9711 9710 9709 9709 9709 9709 9710
9821 9815 9808 9801 9795 9789 9782 9775 9769 9763 9756 9751 9746 9742 9737 9733 9729 9724 9722 9720 9718 9716 9713 9711 9710 9709 9708 9705 9703 9701 9699 9697 9697 9696 9697 9696 9696 9696 9695 9695 9694 9694 9696
9798 9791 9785 9778 9772 9766 9760 9753 9746 9740 9735 9730 9726 9722 9718 9714 9710 9707 9704 9702 9700 9698 9697 9695 9694 9693 9693 9691 9688 9687 9685 9684 9684 9683 9683 9681 9681 9681 9681 9680 9680 9680 9681